Regional Weather Roundup
Issued by NWS

Home | Current Version | Previous Version | Graphics & Text | Print | Product List | Glossary On
Versions: 1 2 3 4 5 6 7 8 9 10 11 12 13 14 15 16 17 18 19 20 21 22 23 24 25 26 27 28 29 30 31 32 33 34 35 36 37 38 39 40 41 42 43 44 45 46 47 48 49 50
000
ASUS43 KTOP 251208
RWRKS

WEATHER ROUNDUP FOR KANSAS
NATIONAL WEATHER SERVICE GOODLAND KS
600 AM CST SUN JAN 25 2015

NOTE:  "FAIR" INDICATES FEW OR NO CLOUDS BELOW 12,000 FEET WITH NO
SIGNIFICANT WEATHER AND/OR OBSTRUCTIONS TO VISIBILITY.

KSZ001>006-013>018-027>032-041>047-251300-
NORTHWEST KANSAS

CITY           SKY/WX    TMP DP  RH WIND       PRES   REMARKS
GOODLAND       PTCLDY    38  24  57 NW25      30.06S WCI  27
6HR MIN TEMP:  34; 6HR MAX TEMP:  41;

HAYS           CLEAR     39  25  56 NW21      29.96R WCI  29
HILL CITY      CLEAR     40  27  59 NW21G29   29.99R WCI  30
6HR MIN TEMP:  40; 6HR MAX TEMP:  47;

RUSSELL        PTCLDY    40  30  67 NW23G31   29.92R WCI  30
6HR MIN TEMP:  40; 6HR MAX TEMP:  49;

$$

KSZ061>065-074>080-084>089-251300-
SOUTHWEST KANSAS

CITY           SKY/WX    TMP DP  RH WIND       PRES   REMARKS
DODGE CITY     CLEAR     41  24  51 NW22G29   30.02R
6HR MIN TEMP:  41; 6HR MAX TEMP:  48;

ELKHART          N/A    N/A N/A N/A MISG        N/A
GARDEN CITY    CLEAR     39  25  57 NW18      30.04R WCI  30
6HR MIN TEMP:  38; 6HR MAX TEMP:  47;

GREAT BEND     CLEAR     41  27  56 NW20G25   29.95R
LIBERAL        PTCLDY    39  25  56 N20G26    30.07R WCI  30
PRATT          CLEAR     41  28  60 NW23G29   29.95R
$$

KSZ066>073-081>083-090>101-251300-
SOUTHEAST KANSAS

CITY           SKY/WX    TMP DP  RH WIND       PRES   REMARKS
CHANUTE        MOCLDY    47  34  60 NW17G23   29.74F
6HR MIN TEMP:  47; 6HR MAX TEMP:  51;

COFFEYVILLE    PTCLDY    49  34  56 NW14      29.77S
6HR MIN TEMP:  48; 6HR MAX TEMP:  52; 6HR PCP: TRACE;

HUTCHINSON     PTCLDY    46  30  53 NW25G33   29.87R
6HR MIN TEMP:  45; 6HR MAX TEMP:  52;

MEDICINE LODGE   N/A     46  28  49 N24G36    29.92R
NEWTON         CLOUDY    43  34  70 NW23G32   29.86R
PARSONS        MOCLDY    49  35  58 NW17G23   29.77R
6HR MIN TEMP:  49; 6HR MAX TEMP:  52;

WICHITA INTL   CLOUDY    48  31  51 NW22G32   29.85R
6HR MIN TEMP:  47; 6HR MAX TEMP:  54;

WICHITA JABRA  CLOUDY    47  31  53 NW23G36   29.84R
6HR MIN TEMP:  46; 6HR MAX TEMP:  52;

WICHITA MCCONL PTCLDY    48  32  53 NW21G31   29.84R
WINFIELD       CLEAR     47  31  53 NW28G36   29.85S
6HR MIN TEMP:  46; 6HR MAX TEMP:  52;

$$

KSZ007>012-019>026-033>040-048>060-102>105-251300-
NORTHEAST KANSAS

CITY           SKY/WX    TMP DP  RH WIND       PRES   REMARKS
CONCORDIA      CLOUDY    42  35  76 NW25G37   29.84R
6HR MIN TEMP:  42; 6HR MAX TEMP:  47; 6HR PCP: TRACE;

EMPORIA        CLOUDY    44  35  70 NW20G35   29.75R
6HR MIN TEMP:  44; 6HR MAX TEMP:  49; 6HR PCP: TRACE;

LAWRENCE       CLOUDY    43  36  76 NW18G28   29.69R
6HR MIN TEMP:  41; 6HR MAX TEMP:  48; 6HR PCP: TRACE;

MANHATTAN      CLOUDY    44  33  65 NW14G32   29.79R
6HR MIN TEMP:  44; 6HR MAX TEMP:  51; 6HR PCP: TRACE;

MARYSVILLE     DRIZZLE   37  32  81 NW25G37   29.76R WCI  26
OLATHE IND     CLOUDY    43  37  79 NW20      29.68R
6HR MIN TEMP:  43; 6HR MAX TEMP:  47; 6HR PCP:  0.01;

OLATHE EXE     CLOUDY    44  36  73 NW18G28   29.66R
6HR MIN TEMP:  44; 6HR MAX TEMP:  47; 6HR PCP:  0.03;

SALINA         CLOUDY    45  35  68 NW26G40   29.86R
6HR MIN TEMP:  44; 6HR MAX TEMP:  49; 6HR PCP: TRACE;

TOPEKA BILLARD CLOUDY    44  34  67 NW28G35   29.72R
6HR MIN TEMP:  44; 6HR MAX TEMP:  49; 6HR PCP: TRACE;

TOPEKA FORBES  CLOUDY    45  34  65 NW33G45   29.71R
6HR MIN TEMP:  45; 6HR MAX TEMP:  50; 6HR PCP:  0.02;

$$



USA.gov is the U.S. government's official web portal to all federal, state and local government web resources and services.